Location: Unspecified
(40.7945°N, 111.1337°W)
Time: 22:30:56
(UTC-06:00)

Vanguard 1 - Pass Details

Date: 02 July 2019
Orbit: 655 x 3829 km, 34.2° (Epoch: 16 August)

Event Time Altitude Azimuth Distance (km) Brightness Sun altitude
Rises 22:11:50 0° 199° (SSW) 7,086 14.2 -11.5°
Reaches altitude 10° 22:17:18 10° 189° (S) 6,418 13.9 -12.3°
Maximum altitude 22:34:38 30° 137° (SE) 5,381 13.2 -14.5°
Drops below altitude 10° 22:51:53 10° 87° (E) 6,481 13.9 -16.6°
Sets 22:57:17 0° 78° (ENE) 7,175 14.2 -17.2°
